| time (UTC) | temp F | wind direction | speed MPH | gust MPH | rain 1hr in | rain 24hr in | rain mn in | humidity % | barometer mb |
| 20260510234306 | 60 | 150 | 0.0 | 0.0 | 0.00 | 0.03 | 0.00 | 86 | 1011.5 |
| 20260510233306 | 60 | 105 | 0.0 | 0.0 | 0.00 | 0.03 | 0.00 | 85 | 1011.6 |
| 20260510232807 | 60 | 141 | 0.0 | 0.0 | 0.00 | 0.03 | 0.00 | 86 | 1011.7 |
| 20260510232307 | 60 | 131 | 0.0 | 0.0 | 0.00 | 0.03 | 0.00 | 86 | 1011.6 |
| 20260510231806 | 60 | 58 | 0.0 | 0.0 | 0.00 | 0.03 | 0.00 | 85 | 1011.6 |
| 20260510231306 | 60 | 58 | 0.0 | 0.0 | 0.00 | 0.03 | 0.00 | 84 | 1011.6 |
| 20260510230306 | 60 | 58 | 0.0 | 0.0 | 0.00 | 0.03 | 0.00 | 84 | 1011.6 |
| 20260510225806 | 60 | 58 | 0.0 | 0.0 | 0.00 | 0.03 | 0.00 | 83 | 1011.7 |
| 20260510225307 | 60 | 58 | 0.0 | 0.0 | 0.00 | 0.03 | 0.00 | 82 | 1011.8 |
| 20260510224807 | 60 | 58 | 0.0 | 0.0 | 0.00 | 0.03 | 0.00 | 82 | 1011.8 |
| 20260510224306 | 61 | 58 | 0.0 | 0.0 | 0.00 | 0.03 | 0.00 | 82 | 1011.7 |
| 20260510223806 | 61 | 58 | 0.0 | 0.0 | 0.00 | 0.03 | 0.00 | 81 | 1011.7 |
| 20260510223306 | 61 | 58 | 0.0 | 0.0 | 0.00 | 0.03 | 0.00 | 82 | 1011.7 |
| 20260510222806 | 61 | 58 | 0.0 | 0.0 | 0.00 | 0.03 | 0.00 | 81 | 1011.7 |
| 20260510222306 | 61 | 58 | 0.0 | 0.0 | 0.00 | 0.03 | 0.00 | 81 | 1011.6 |
| 20260510221306 | 61 | 58 | 0.0 | 0.0 | 0.00 | 0.03 | 0.00 | 80 | 1011.6 |
| 20260510220828 | 61 | 58 | 0.0 | 0.0 | 0.00 | 0.03 | 0.00 | 79 | 1011.6 |
| 20260510220306 | 62 | 58 | 0.0 | 0.0 | 0.00 | 0.03 | 0.00 | 79 | 1011.7 |
| 20260510215307 | 62 | 58 | 0.0 | 0.0 | 0.00 | 0.03 | 0.03 | 78 | 1011.7 |
| 20260510214806 | 62 | 58 | 0.0 | 0.0 | 0.00 | 0.03 | 0.03 | 77 | 1011.8 |
| 20260510214306 | 63 | 58 | 0.0 | 0.0 | 0.00 | 0.03 | 0.03 | 77 | 1011.7 |
| 20260510213805 | 63 | 27 | 0.0 | 0.0 | 0.00 | 0.03 | 0.03 | 77 | 1011.6 |
| 20260510213306 | 63 | 41 | 0.0 | 0.0 | 0.00 | 0.03 | 0.03 | 77 | 1011.7 |
| 20260510212805 | 63 | 39 | 0.0 | 0.0 | 0.00 | 0.03 | 0.03 | 76 | 1011.7 |
| 20260510212306 | 63 | 34 | 0.0 | 0.0 | 0.00 | 0.03 | 0.03 | 76 | 1011.6 |
| 20260510211806 | 63 | 70 | 0.0 | 0.0 | 0.00 | 0.03 | 0.03 | 76 | 1011.5 |
| 20260510210805 | 63 | 61 | 0.0 | 0.0 | 0.00 | 0.03 | 0.03 | 76 | 1011.5 |
| 20260510210306 | 63 | 41 | 0.0 | 0.0 | 0.00 | 0.03 | 0.03 | 76 | 1011.5 |
| 20260510205806 | 63 | 74 | 0.0 | 0.0 | 0.00 | 0.03 | 0.03 | 75 | 1011.6 |
| 20260510205307 | 63 | 151 | 0.0 | 0.0 | 0.00 | 0.03 | 0.03 | 75 | 1011.6 |
| 20260510204806 | 64 | 54 | 0.0 | 0.0 | 0.00 | 0.03 | 0.03 | 75 | 1011.7 |
| 20260510204306 | 64 | 42 | 0.0 | 0.0 | 0.00 | 0.03 | 0.03 | 75 | 1011.7 |
| 20260510203805 | 64 | 37 | 0.0 | 0.0 | 0.00 | 0.03 | 0.03 | 75 | 1011.8 |
| 20260510203306 | 64 | 40 | 0.0 | 0.0 | 0.00 | 0.03 | 0.03 | 75 | 1011.9 |
| 20260510202805 | 64 | 50 | 0.0 | 0.0 | 0.00 | 0.03 | 0.03 | 74 | 1011.9 |
| 20260510202307 | 64 | 42 | 0.0 | 0.0 | 0.00 | 0.03 | 0.03 | 74 | 1011.9 |
| 20260510201806 | 64 | 39 | 0.0 | 0.0 | 0.00 | 0.03 | 0.03 | 73 | 1012.0 |
| 20260510201306 | 64 | 42 | 0.0 | 0.0 | 0.00 | 0.03 | 0.03 | 73 | 1011.9 |
| 20260510200806 | 64 | 33 | 0.0 | 0.0 | 0.00 | 0.03 | 0.03 | 73 | 1012.0 |
| 20260510195805 | 64 | 27 | 0.0 | 0.0 | 0.00 | 0.03 | 0.03 | 72 | 1011.9 |
| 20260510194805 | 64 | 52 | 0.0 | 0.0 | 0.00 | 0.03 | 0.03 | 71 | 1011.8 |
| 20260510194306 | 64 | 47 | 0.0 | 0.0 | 0.00 | 0.03 | 0.03 | 71 | 1011.8 |
| 20260510193806 | 64 | 33 | 0.0 | 0.0 | 0.00 | 0.03 | 0.03 | 70 | 1011.7 |
| 20260510193306 | 64 | 47 | 0.0 | 0.0 | 0.00 | 0.03 | 0.03 | 70 | 1011.7 |
| 20260510192806 | 65 | 20 | 0.0 | 0.0 | 0.00 | 0.03 | 0.03 | 69 | 1011.7 |
| 20260510192307 | 65 | 38 | 0.0 | 0.0 | 0.00 | 0.03 | 0.03 | 69 | 1011.6 |
| 20260510191806 | 65 | 38 | 0.0 | 0.0 | 0.00 | 0.03 | 0.03 | 69 | 1011.5 |
| 20260510191306 | 65 | 36 | 0.0 | 0.0 | 0.00 | 0.03 | 0.03 | 68 | 1011.5 |
| 20260510190806 | 65 | 22 | 0.0 | 0.0 | 0.00 | 0.03 | 0.03 | 67 | 1011.5 |
| 20260510190306 | 66 | 43 | 0.0 | 0.0 | 0.00 | 0.03 | 0.03 | 67 | 1011.6 |
| 20260510185805 | 66 | 31 | 0.0 | 0.0 | 0.00 | 0.03 | 0.03 | 66 | 1011.5 |
| 20260510185306 | 66 | 37 | 0.0 | 0.0 | 0.00 | 0.03 | 0.03 | 66 | 1011.4 |
| 20260510184805 | 66 | 8 | 0.0 | 0.0 | 0.00 | 0.03 | 0.03 | 65 | 1011.4 |
| 20260510184306 | 66 | 51 | 0.0 | 0.0 | 0.00 | 0.03 | 0.03 | 65 | 1011.5 |
| 20260510183805 | 66 | 311 | 0.0 | 0.0 | 0.00 | 0.03 | 0.03 | 65 | 1011.6 |
| 20260510182805 | 66 | 43 | 0.0 | 0.0 | 0.00 | 0.03 | 0.03 | 65 | 1011.4 |
| 20260510181805 | 67 | 96 | 0.0 | 0.0 | 0.00 | 0.03 | 0.03 | 65 | 1011.3 |
| 20260510181305 | 67 | 82 | 0.0 | 0.0 | 0.00 | 0.03 | 0.03 | 64 | 1011.3 |
| 20260510180806 | 67 | 78 | 0.0 | 0.0 | 0.00 | 0.03 | 0.03 | 63 | 1011.3 |
| 20260510180305 | 67 | 61 | 0.0 | 0.0 | 0.00 | 0.03 | 0.03 | 62 | 1011.2 |
| 20260510175806 | 68 | 26 | 0.0 | 0.0 | 0.00 | 0.03 | 0.03 | 61 | 1011.3 |
| 20260510175308 | 68 | 54 | 0.0 | 0.0 | 0.00 | 0.03 | 0.03 | 61 | 1011.3 |
| 20260510174805 | 69 | 231 | 0.0 | 0.0 | 0.00 | 0.03 | 0.03 | 60 | 1011.2 |
| 20260510174306 | 69 | 254 | 0.0 | 0.0 | 0.00 | 0.03 | 0.03 | 60 | 1011.2 |
| 20260510173806 | 69 | 37 | 0.0 | 0.0 | 0.00 | 0.03 | 0.03 | 60 | 1011.1 |
| 20260510173305 | 69 | 87 | 0.0 | 0.0 | 0.00 | 0.03 | 0.03 | 60 | 1011.1 |
| 20260510172806 | 69 | 45 | 0.0 | 0.0 | 0.00 | 0.03 | 0.03 | 61 | 1011.1 |
| 20260510172307 | 70 | 46 | 0.0 | 0.0 | 0.00 | 0.03 | 0.03 | 61 | 1011.0 |
| 20260510171805 | 70 | 27 | 0.0 | 0.0 | 0.00 | 0.03 | 0.03 | 61 | 1011.0 |
| 20260510171306 | 70 | 29 | 0.0 | 0.0 | 0.00 | 0.03 | 0.03 | 61 | 1010.9 |
| 20260510170805 | 71 | 57 | 0.0 | 0.0 | 0.00 | 0.03 | 0.03 | 60 | 1010.9 |
| 20260510165306 | 72 | 163 | 0.0 | 0.0 | 0.00 | 0.03 | 0.03 | 61 | 1010.7 |
| 20260510164806 | 72 | 54 | 0.0 | 0.0 | 0.00 | 0.03 | 0.03 | 60 | 1010.6 |
| 20260510164305 | 72 | 72 | 0.0 | 0.0 | 0.00 | 0.03 | 0.03 | 60 | 1010.5 |
| 20260510163805 | 73 | 57 | 0.0 | 0.0 | 0.00 | 0.03 | 0.03 | 59 | 1010.5 |
| 20260510163306 | 73 | 171 | 0.0 | 0.0 | 0.00 | 0.03 | 0.03 | 58 | 1010.6 |
| 20260510162805 | 73 | 4 | 0.0 | 0.0 | 0.00 | 0.03 | 0.03 | 58 | 1010.6 |
| 20260510162306 | 74 | 222 | 0.0 | 0.0 | 0.00 | 0.03 | 0.03 | 57 | 1010.7 |
| 20260510161806 | 74 | 157 | 0.0 | 0.0 | 0.00 | 0.03 | 0.03 | 57 | 1010.7 |
| 20260510160805 | 75 | 232 | 0.0 | 0.0 | 0.00 | 0.03 | 0.03 | 57 | 1010.8 |
| 20260510160306 | 75 | 261 | 0.0 | 0.0 | 0.00 | 0.03 | 0.03 | 57 | 1010.8 |
| 20260510155805 | 75 | 227 | 0.0 | 0.0 | 0.00 | 0.03 | 0.03 | 57 | 1010.7 |
| 20260510155306 | 75 | 236 | 0.0 | 0.0 | 0.00 | 0.03 | 0.03 | 57 | 1010.7 |
| 20260510154305 | 75 | 136 | 0.0 | 0.0 | 0.00 | 0.03 | 0.03 | 57 | 1010.7 |
| 20260510153305 | 74 | 268 | 0.0 | 0.0 | 0.00 | 0.03 | 0.03 | 58 | 1010.8 |
| 20260510152806 | 74 | 225 | 0.0 | 0.0 | 0.00 | 0.03 | 0.03 | 59 | 1010.7 |
| 20260510152307 | 74 | 140 | 0.0 | 0.0 | 0.00 | 0.03 | 0.03 | 59 | 1010.8 |
| 20260510151306 | 74 | 308 | 0.0 | 0.0 | 0.00 | 0.03 | 0.03 | 60 | 1011.0 |
| 20260510150805 | 73 | 124 | 0.0 | 0.0 | 0.00 | 0.03 | 0.03 | 60 | 1010.9 |
| 20260510150305 | 74 | 47 | 0.0 | 0.0 | 0.00 | 0.03 | 0.03 | 60 | 1011.1 |
| 20260510145805 | 74 | 163 | 0.0 | 0.0 | 0.00 | 0.03 | 0.03 | 61 | 1011.0 |
| 20260510145306 | 73 | 244 | 0.0 | 0.0 | 0.00 | 0.03 | 0.03 | 61 | 1010.9 |
| 20260510144805 | 74 | 247 | 0.0 | 0.0 | 0.00 | 0.03 | 0.03 | 60 | 1010.9 |
| 20260510144305 | 74 | 178 | 0.0 | 0.0 | 0.00 | 0.03 | 0.03 | 61 | 1011.0 |
| 20260510143306 | 74 | 79 | 0.0 | 0.0 | 0.00 | 0.03 | 0.03 | 60 | 1011.0 |
| 20260510142306 | 74 | 212 | 0.0 | 0.0 | 0.00 | 0.03 | 0.03 | 58 | 1011.0 |
| 20260510141809 | 74 | 186 | 0.0 | 0.0 | 0.00 | 0.03 | 0.03 | 58 | 1011.0 |
| 20260510140810 | 75 | 75 | 0.0 | 0.0 | 0.00 | 0.03 | 0.03 | 55 | 1011.0 |
| 20260510135805 | 75 | 189 | 0.0 | 0.0 | 0.00 | 0.03 | 0.03 | 52 | 1011.1 |
| 20260510135306 | 75 | 156 | 0.0 | 0.0 | 0.00 | 0.03 | 0.03 | 52 | 1011.2 |
| 20260510134305 | 76 | 19 | 0.0 | 0.0 | 0.00 | 0.03 | 0.03 | 51 | 1011.2 |
| 20260510133804 | 76 | 105 | 0.0 | 0.0 | 0.00 | 0.03 | 0.03 | 51 | 1011.2 |
| 20260510133309 | 76 | 228 | 0.0 | 0.0 | 0.00 | 0.03 | 0.03 | 51 | 1011.3 |
| 20260510132805 | 75 | 155 | 0.0 | 0.0 | 0.00 | 0.03 | 0.03 | 51 | 1011.3 |
| 20260510132306 | 75 | 100 | 0.0 | 0.0 | 0.00 | 0.03 | 0.03 | 51 | 1011.4 |
| 20260510131305 | 76 | 171 | 0.0 | 0.0 | 0.00 | 0.03 | 0.03 | 50 | 1011.6 |
| 20260510130305 | 76 | 52 | 0.0 | 0.0 | 0.00 | 0.03 | 0.03 | 49 | 1011.8 |
| 20260510125811 | 76 | 83 | 0.0 | 0.0 | 0.00 | 0.03 | 0.03 | 49 | 1011.8 |
| 20260510124805 | 76 | 148 | 0.0 | 0.0 | 0.00 | 0.03 | 0.03 | 48 | 1011.8 |
| 20260510124305 | 76 | 103 | 0.0 | 0.0 | 0.00 | 0.03 | 0.03 | 48 | 1011.8 |
| 20260510123805 | 76 | 205 | 0.0 | 0.0 | 0.00 | 0.03 | 0.03 | 49 | 1011.7 |
| 20260510123305 | 76 | 163 | 0.0 | 0.0 | 0.00 | 0.03 | 0.03 | 48 | 1011.7 |
| 20260510122805 | 76 | 259 | 0.0 | 0.0 | 0.00 | 0.03 | 0.03 | 48 | 1011.7 |
| 20260510122306 | 76 | 87 | 0.0 | 0.0 | 0.00 | 0.03 | 0.03 | 48 | 1011.7 |
| 20260510121806 | 76 | 88 | 0.0 | 0.0 | 0.00 | 0.03 | 0.03 | 48 | 1011.7 |
| 20260510121305 | 76 | 225 | 0.0 | 0.0 | 0.00 | 0.03 | 0.03 | 49 | 1011.7 |
| 20260510120805 | 75 | 278 | 0.0 | 0.0 | 0.00 | 0.03 | 0.03 | 50 | 1011.8 |
| 20260510120305 | 75 | 66 | 0.0 | 0.0 | 0.00 | 0.03 | 0.03 | 50 | 1011.8 |
| 20260510114804 | 75 | 230 | 0.0 | 0.0 | 0.00 | 0.03 | 0.03 | 53 | 1011.9 |
| 20260510114305 | 75 | 207 | 0.0 | 0.0 | 0.00 | 0.03 | 0.03 | 54 | 1012.0 |
| 20260510113805 | 74 | 238 | 0.0 | 0.0 | 0.00 | 0.03 | 0.03 | 55 | 1012.0 |
| 20260510113304 | 73 | 39 | 0.0 | 0.0 | 0.00 | 0.03 | 0.03 | 56 | 1012.0 |
| 20260510112805 | 73 | 245 | 0.0 | 0.0 | 0.00 | 0.03 | 0.03 | 56 | 1012.1 |
| 20260510111805 | 74 | 90 | 0.0 | 0.0 | 0.00 | 0.03 | 0.03 | 55 | 1012.2 |
| 20260510111305 | 74 | 150 | 0.0 | 0.0 | 0.00 | 0.03 | 0.03 | 56 | 1012.1 |
| 20260510110805 | 74 | 158 | 0.0 | 0.0 | 0.00 | 0.03 | 0.03 | 55 | 1012.1 |
| 20260510110305 | 74 | 144 | 0.0 | 0.0 | 0.00 | 0.03 | 0.03 | 56 | 1012.2 |
| 20260510105805 | 75 | 26 | 0.0 | 0.0 | 0.00 | 0.03 | 0.03 | 55 | 1012.3 |
| 20260510105306 | 75 | 308 | 0.0 | 0.0 | 0.00 | 0.03 | 0.03 | 54 | 1012.4 |
| 20260510104804 | 75 | 152 | 0.0 | 0.0 | 0.00 | 0.03 | 0.03 | 55 | 1012.4 |
| 20260510104305 | 75 | 91 | 0.0 | 0.0 | 0.00 | 0.03 | 0.03 | 55 | 1012.5 |
| 20260510103804 | 74 | 162 | 0.0 | 0.0 | 0.00 | 0.03 | 0.03 | 56 | 1012.5 |
| 20260510103306 | 74 | 81 | 0.0 | 0.0 | 0.00 | 0.03 | 0.03 | 56 | 1012.5 |
| 20260510102306 | 74 | 93 | 0.0 | 0.0 | 0.00 | 0.03 | 0.03 | 57 | 1012.5 |
| 20260510101805 | 74 | 22 | 0.0 | 0.0 | 0.00 | 0.03 | 0.03 | 57 | 1012.5 |
| 20260510101305 | 74 | 11 | 0.0 | 0.0 | 0.00 | 0.03 | 0.03 | 57 | 1012.5 |
| 20260510100306 | 74 | 51 | 0.0 | 0.0 | 0.00 | 0.03 | 0.03 | 57 | 1012.6 |
| 20260510095804 | 74 | 79 | 0.0 | 0.0 | 0.00 | 0.03 | 0.03 | 56 | 1012.6 |
| 20260510095306 | 74 | 191 | 0.0 | 0.0 | 0.00 | 0.03 | 0.03 | 56 | 1012.6 |
| 20260510094805 | 74 | 104 | 0.0 | 0.0 | 0.00 | 0.03 | 0.03 | 57 | 1012.8 |
| 20260510093805 | 74 | 47 | 0.0 | 0.0 | 0.00 | 0.03 | 0.03 | 56 | 1012.7 |
| 20260510093305 | 74 | 96 | 0.0 | 0.0 | 0.00 | 0.03 | 0.03 | 55 | 1012.7 |
| 20260510092804 | 74 | 83 | 0.0 | 0.0 | 0.00 | 0.03 | 0.03 | 55 | 1012.6 |
| 20260510092306 | 74 | 70 | 0.0 | 0.0 | 0.00 | 0.03 | 0.03 | 56 | 1012.6 |
| 20260510091805 | 73 | 112 | 0.0 | 0.0 | 0.00 | 0.03 | 0.03 | 56 | 1012.6 |
| 20260510091305 | 73 | 317 | 0.0 | 0.0 | 0.00 | 0.03 | 0.03 | 56 | 1012.6 |
| 20260510090804 | 73 | 179 | 0.0 | 0.0 | 0.00 | 0.03 | 0.03 | 56 | 1012.6 |
| 20260510090305 | 73 | 155 | 0.0 | 0.0 | 0.00 | 0.03 | 0.03 | 57 | 1012.5 |
| 20260510085805 | 72 | 127 | 0.0 | 0.0 | 0.00 | 0.03 | 0.03 | 58 | 1012.4 |
| 20260510085306 | 72 | 35 | 0.0 | 0.0 | 0.00 | 0.03 | 0.03 | 58 | 1012.4 |
| 20260510084804 | 72 | 13 | 0.0 | 0.0 | 0.00 | 0.03 | 0.03 | 58 | 1012.4 |
| 20260510084304 | 72 | 127 | 0.0 | 0.0 | 0.00 | 0.03 | 0.03 | 58 | 1012.4 |
| 20260510083805 | 71 | 152 | 0.0 | 0.0 | 0.00 | 0.03 | 0.03 | 60 | 1012.3 |
| 20260510083304 | 71 | 42 | 0.0 | 0.0 | 0.00 | 0.03 | 0.03 | 60 | 1012.3 |
| 20260510082804 | 71 | 16 | 0.0 | 0.0 | 0.00 | 0.03 | 0.03 | 60 | 1012.2 |
| 20260510082307 | 71 | 119 | 0.0 | 0.0 | 0.00 | 0.03 | 0.03 | 61 | 1012.2 |
| 20260510081804 | 71 | 57 | 0.0 | 0.0 | 0.00 | 0.03 | 0.03 | 61 | 1012.1 |
| 20260510081304 | 70 | 81 | 0.0 | 0.0 | 0.00 | 0.03 | 0.03 | 61 | 1012.1 |
| 20260510080805 | 70 | 74 | 0.0 | 0.0 | 0.00 | 0.03 | 0.03 | 62 | 1011.9 |
| 20260510080305 | 70 | 22 | 0.0 | 0.0 | 0.00 | 0.03 | 0.03 | 61 | 1011.8 |
| 20260510075804 | 70 | 41 | 0.0 | 0.0 | 0.00 | 0.03 | 0.03 | 62 | 1011.8 |
| 20260510075306 | 70 | 39 | 0.0 | 0.0 | 0.00 | 0.03 | 0.03 | 62 | 1011.7 |
| 20260510074805 | 69 | 117 | 0.0 | 0.0 | 0.00 | 0.03 | 0.03 | 63 | 1011.7 |
| 20260510074305 | 69 | 67 | 0.0 | 0.0 | 0.00 | 0.03 | 0.03 | 63 | 1011.6 |
| 20260510073804 | 69 | 96 | 0.0 | 0.0 | 0.00 | 0.03 | 0.03 | 64 | 1011.7 |
| 20260510073304 | 69 | 329 | 0.0 | 0.0 | 0.00 | 0.03 | 0.03 | 65 | 1011.7 |
| 20260510072805 | 68 | 146 | 0.0 | 0.0 | 0.00 | 0.03 | 0.03 | 65 | 1011.8 |
| 20260510072306 | 68 | 92 | 0.0 | 0.0 | 0.00 | 0.03 | 0.03 | 65 | 1011.8 |
| 20260510070304 | 67 | 82 | 0.0 | 0.0 | 0.00 | 0.03 | 0.03 | 66 | 1011.7 |
| 20260510065306 | 66 | 89 | 0.0 | 0.0 | 0.00 | 0.03 | 0.03 | 67 | 1011.6 |
| 20260510064805 | 66 | 143 | 0.0 | 0.0 | 0.00 | 0.03 | 0.03 | 67 | 1011.6 |
| 20260510064304 | 66 | 165 | 0.0 | 0.0 | 0.00 | 0.03 | 0.03 | 68 | 1011.5 |
| 20260510063804 | 65 | 242 | 0.0 | 0.0 | 0.00 | 0.03 | 0.03 | 68 | 1011.4 |
| 20260510063304 | 65 | 36 | 0.0 | 0.0 | 0.00 | 0.03 | 0.03 | 69 | 1011.4 |
| 20260510062804 | 64 | 208 | 0.0 | 0.0 | 0.00 | 0.03 | 0.03 | 70 | 1011.4 |
| 20260510062307 | 64 | 127 | 0.0 | 0.0 | 0.00 | 0.03 | 0.03 | 71 | 1011.4 |
| 20260510061304 | 63 | 345 | 0.0 | 0.0 | 0.00 | 0.03 | 0.03 | 74 | 1011.4 |
| 20260510060805 | 62 | 35 | 0.0 | 0.0 | 0.00 | 0.03 | 0.03 | 75 | 1011.4 |
| 20260510060305 | 62 | 80 | 0.0 | 0.0 | 0.00 | 0.03 | 0.03 | 76 | 1011.4 |
| 20260510055804 | 62 | 85 | 0.0 | 0.0 | 0.00 | 0.03 | 0.03 | 77 | 1011.5 |
| 20260510055306 | 62 | 3 | 0.0 | 0.0 | 0.00 | 0.03 | 0.03 | 77 | 1011.5 |
| 20260510054805 | 61 | 141 | 0.0 | 0.0 | 0.00 | 0.03 | 0.03 | 78 | 1011.5 |
| 20260510053805 | 61 | 100 | 0.0 | 0.0 | 0.00 | 0.03 | 0.03 | 78 | 1011.5 |
| 20260510053305 | 61 | 150 | 0.0 | 0.0 | 0.00 | 0.03 | 0.03 | 78 | 1011.4 |
| 20260510052804 | 61 | 83 | 0.0 | 0.0 | 0.00 | 0.03 | 0.03 | 77 | 1011.3 |
| 20260510051804 | 61 | 186 | 0.0 | 0.0 | 0.00 | 0.03 | 0.03 | 76 | 1011.2 |
| 20260510051304 | 62 | 140 | 0.0 | 0.0 | 0.00 | 0.03 | 0.03 | 76 | 1011.2 |
| 20260510050804 | 61 | 21 | 0.0 | 0.0 | 0.00 | 0.03 | 0.03 | 76 | 1011.2 |
| 20260510050305 | 61 | 153 | 0.0 | 0.0 | 0.00 | 0.03 | 0.03 | 76 | 1011.2 |
| 20260510045804 | 61 | 151 | 0.0 | 0.0 | 0.00 | 0.03 | 0.03 | 77 | 1011.0 |
| 20260510045306 | 61 | 91 | 0.0 | 0.0 | 0.00 | 0.03 | 0.03 | 77 | 1011.0 |
| 20260510044806 | 61 | 146 | 0.0 | 0.0 | 0.00 | 0.03 | 0.03 | 77 | 1010.9 |
| 20260510044304 | 61 | 111 | 0.0 | 0.0 | 0.00 | 0.03 | 0.03 | 77 | 1010.8 |
| 20260510043304 | 61 | 157 | 0.0 | 0.0 | 0.00 | 0.03 | 0.03 | 78 | 1010.7 |
| 20260510042804 | 61 | 213 | 0.0 | 0.0 | 0.00 | 0.03 | 0.03 | 78 | 1010.8 |
| 20260510042306 | 61 | 126 | 0.0 | 0.0 | 0.00 | 0.03 | 0.03 | 78 | 1010.8 |
| 20260510041804 | 61 | 75 | 0.0 | 0.0 | 0.00 | 0.03 | 0.03 | 78 | 1010.8 |
| 20260510041304 | 61 | 68 | 0.0 | 0.0 | 0.00 | 0.03 | 0.03 | 78 | 1010.9 |
| 20260510040804 | 61 | 80 | 0.0 | 0.0 | 0.00 | 0.03 | 0.03 | 78 | 1011.1 |
| 20260510040304 | 61 | 84 | 0.0 | 0.0 | 0.00 | 0.03 | 0.03 | 78 | 1011.1 |
| 20260510035804 | 61 | 201 | 0.0 | 0.0 | 0.00 | 0.03 | 0.03 | 78 | 1011.0 |
| 20260510035306 | 61 | 297 | 0.0 | 0.0 | 0.00 | 0.03 | 0.03 | 79 | 1010.9 |
| 20260510034804 | 61 | 82 | 0.0 | 0.0 | 0.00 | 0.03 | 0.03 | 78 | 1010.8 |
| 20260510033304 | 61 | 55 | 0.0 | 0.0 | 0.00 | 0.03 | 0.03 | 79 | 1011.1 |
| 20260510032804 | 60 | 7 | 0.0 | 0.0 | 0.00 | 0.03 | 0.03 | 80 | 1011.0 |
| 20260510032306 | 60 | 57 | 0.0 | 0.0 | 0.00 | 0.03 | 0.03 | 80 | 1011.0 |
| 20260510031304 | 60 | 342 | 0.0 | 0.0 | 0.00 | 0.03 | 0.03 | 81 | 1011.0 |
| 20260510030804 | 60 | 308 | 0.0 | 0.0 | 0.00 | 0.03 | 0.03 | 81 | 1011.0 |
| 20260510030304 | 60 | 159 | 0.0 | 0.0 | 0.00 | 0.03 | 0.03 | 81 | 1011.1 |
| 20260510025804 | 60 | 186 | 0.0 | 0.0 | 0.00 | 0.03 | 0.03 | 82 | 1011.0 |
| 20260510025306 | 60 | 115 | 0.0 | 0.0 | 0.00 | 0.03 | 0.03 | 82 | 1011.2 |
| 20260510024804 | 60 | 8 | 0.0 | 0.0 | 0.00 | 0.03 | 0.03 | 83 | 1011.4 |
| 20260510024305 | 60 | 305 | 0.0 | 0.0 | 0.00 | 0.03 | 0.03 | 83 | 1011.3 |
| 20260510023304 | 60 | 132 | 0.0 | 0.0 | 0.00 | 0.03 | 0.03 | 84 | 1011.2 |
| 20260510021804 | 60 | 98 | 0.0 | 0.0 | 0.01 | 0.03 | 0.03 | 84 | 1012.2 |
| 20260510021304 | 60 | 90 | 0.0 | 0.0 | 0.01 | 0.03 | 0.03 | 84 | 1012.2 |
| 20260510020803 | 60 | 339 | 0.0 | 0.0 | 0.01 | 0.03 | 0.03 | 84 | 1012.5 |
| 20260510020304 | 60 | 354 | 0.0 | 0.0 | 0.01 | 0.03 | 0.03 | 85 | 1012.5 |
| 20260510015804 | 60 | 47 | 0.0 | 0.0 | 0.01 | 0.03 | 0.03 | 85 | 1012.4 |
| 20260510015306 | 60 | 168 | 0.0 | 0.0 | 0.01 | 0.03 | 0.03 | 85 | 1012.4 |
| 20260510014804 | 60 | 47 | 0.0 | 0.0 | 0.01 | 0.03 | 0.03 | 85 | 1012.2 |
| 20260510014304 | 60 | 118 | 0.0 | 0.0 | 0.01 | 0.03 | 0.03 | 85 | 1012.3 |
| 20260510013803 | 60 | 35 | 0.0 | 0.0 | 0.02 | 0.03 | 0.03 | 84 | 1012.3 |
| 20260510013304 | 60 | 88 | 0.0 | 0.0 | 0.02 | 0.03 | 0.03 | 83 | 1012.5 |
| 20260510012803 | 60 | 32 | 0.0 | 0.0 | 0.02 | 0.03 | 0.03 | 83 | 1012.4 |
| 20260510012307 | 60 | 149 | 0.0 | 0.0 | 0.01 | 0.02 | 0.02 | 81 | 1013.0 |
| 20260510011804 | 61 | 272 | 0.0 | 0.0 | 0.01 | 0.02 | 0.02 | 81 | 1013.6 |
| 20260510011305 | 61 | 154 | 0.0 | 0.0 | 0.02 | 0.02 | 0.02 | 80 | 1013.7 |
| 20260510010804 | 60 | 19 | 0.0 | 0.0 | 0.02 | 0.02 | 0.02 | 79 | 1013.6 |
| 20260510005804 | 60 | 63 | 0.0 | 0.0 | 0.02 | 0.02 | 0.02 | 80 | 1013.3 |
| 20260510005306 | 60 | 101 | 0.0 | 0.0 | 0.02 | 0.02 | 0.02 | 80 | 1013.5 |
| 20260510004304 | 60 | 125 | 0.0 | 0.0 | 0.02 | 0.02 | 0.02 | 81 | 1013.6 |
| 20260510003304 | 58 | 39 | 0.0 | 0.0 | 0.01 | 0.01 | 0.01 | 85 | 1014.7 |
| 20260510002307 | 59 | 57 | 0.0 | 0.0 | 0.01 | 0.01 | 0.01 | 83 | 1015.1 |
| 20260510001306 | 59 | 117 | 0.0 | 0.0 | 0.00 | 0.00 | 0.00 | 81 | 1014.7 |
| 20260510000806 | 59 | 26 | 0.0 | 0.0 | 0.00 | 0.00 | 0.00 | 81 | 1014.5 |
| 20260510000306 | 60 | 32 | 0.0 | 0.0 | 0.00 | 0.00 | 0.00 | 80 | 1013.3 |
| 20260509235806 | 59 | 27 | 0.0 | 0.0 | 0.00 | 0.00 | 0.00 | 80 | 1011.6 |
| 20260509235307 | 60 | 356 | 0.0 | 0.0 | 0.00 | 0.00 | 0.00 | 79 | 1011.5 |
| 20260509234806 | 60 | 129 | 0.0 | 0.0 | 0.00 | 0.00 | 0.00 | 79 | 1011.9 |